Wetbulb
55.66 56.11 56.55 56.89 56.83 56.70 56.72 56.26 55.43 55.19 55.57 55.08 54.72 54.55 54.68 54.50 54.20 50.67 46.16 50.02 51.42 56.81 59.03 52.12 52.52 50.75 48.00 46.36 48.58 49.71 43.02 39.80 42.23 45.38 46.95 51.13 49.15 52.98 54.02 54.38 56.11 57.46 56.70 58.06 57.99
54.80 55.07 55.42 55.89 56.26 56.22 56.27 55.57 55.65 55.23 55.43 55.05 54.98 54.64 54.56 54.28 49.73 46.44 52.30 56.79 58.16 61.15 51.49 49.14 46.75 47.64 42.45 44.67 46.09 44.20 42.50 46.64 49.33 48.82 46.93 49.65 49.81 49.84 50.18 50.53 53.45 55.21 57.74 57.71 57.64
54.68 54.67 54.67 54.77 55.12 55.79 55.86 55.85 55.32 55.82 55.16 55.52 54.89 54.70 53.96 53.25 45.72 47.19 58.11 57.64 60.66 60.86 55.10 50.75 47.51 45.78 40.74 44.10 43.00 42.21 41.51 47.38 48.49 50.26 51.15 50.38 49.90 49.06 49.95 47.62 49.52 49.50 53.17 54.47 54.89
54.43 54.43 54.29 54.22 54.32 54.43 55.09 55.42 55.74 55.62 55.36 54.83 54.28 54.24 53.64 50.42 40.10 54.28 66.43 63.28 61.97 58.49 52.66 48.01 44.38 41.37 39.09 39.23 42.27 39.48 44.97 46.81 48.05 49.90 48.75 49.90 54.30 50.38 51.78 51.61 52.99 51.73 52.72 52.49 51.89
54.51 54.54 54.30 54.15 53.95 54.49 54.58 54.96 55.36 55.47 54.95 54.62 54.32 54.03 50.48 44.88 45.80 54.03 65.23 63.23 59.05 54.14 47.38 44.15 41.13 42.18 39.39 41.63 41.71 40.27 43.77 47.15 48.77 49.06 48.66 49.54 47.95 48.96 49.38 51.89 53.02 52.64 52.50 51.02 50.70
55.43 54.99 54.93 55.03 54.81 54.81 54.80 54.75 54.81 54.95 54.74 54.49 54.38 53.58 48.18 40.56 52.60 58.88 59.05 56.51 55.97 49.45 45.77 43.89 44.03 45.65 43.34 42.09 41.80 43.40 44.64 45.55 47.63 47.85 48.30 46.49 45.72 47.43 50.01 52.52 51.72 51.36 49.42 49.80 50.85
55.36 55.30 55.24 55.16 55.08 54.68 54.45 54.16 53.97 54.26 54.68 54.26 54.79 52.85 47.87 44.58 54.29 57.13 54.35 50.29 50.35 48.75 46.34 46.45 46.96 47.47 45.26 41.53 44.41 44.02 40.40 43.16 45.66 46.34 45.23 47.65 44.29 45.48 50.32 51.26 49.95 49.79 49.00 50.22 51.26
55.58 55.38 55.40 55.38 55.28 55.00 54.55 53.97 53.75 54.35 54.68 54.08 54.83 51.36 44.00 54.08 52.24 51.39 51.29 49.59 50.35 49.36 49.09 51.28 49.97 47.53 44.19 44.52 44.57 41.73 39.87 35.71 42.49 45.86 46.82 46.17 41.55 46.85 49.38 49.03 48.50 48.96 48.49 49.79 51.08
55.82 55.34 55.46 55.32 55.48 55.26 54.26 53.27 53.69 55.71 55.05 54.78 51.14 48.18 45.04 57.61 54.08 54.24 53.72 51.07 50.71 49.84 49.32 53.14 50.43 45.53 46.17 40.34 36.04 37.71 34.55 36.99 41.27 45.59 46.13 44.29 40.88 46.50 48.90 47.73 46.70 47.41 47.50 49.65 49.59
55.94 55.42 55.33 54.71 54.53 54.54 53.05 52.92 53.30 54.51 54.79 54.60 53.10 45.99 50.16 51.36 51.35 50.71 51.54 54.30 50.04 49.29 48.45 48.84 44.93 41.81 40.35 36.86 30.97 34.72 36.00 38.44 39.00 43.16 43.78 42.04 41.36 45.53 47.44 46.99 47.72 47.71 47.64 48.74 49.16
55.88 54.81 54.26 54.18 54.54 53.83 51.23 46.96 49.27 48.18 50.12 47.07 50.01 49.11 52.67 56.60 52.92 49.05 49.88 54.42 49.59 46.89 41.76 45.23 39.87 36.56 40.55 41.59 42.22 41.33 39.62 39.24 42.33 44.96 42.77 42.26 42.83 45.10 46.34 45.90 46.00 46.73 47.61 48.16 49.21
55.03 53.93 53.75 53.69 54.03 53.81 50.58 44.19 49.90 49.28 43.84 51.46 52.01 51.64 54.57 55.96 51.05 46.49 50.33 48.99 45.31 40.37 42.85 40.10 37.25 42.97 44.87 44.89 43.63 42.13 39.70 39.02 42.07 44.38 42.42 40.47 41.32 42.94 44.33 44.50 45.27 46.33 46.60 47.87 48.42
53.50 53.25 53.50 53.44 53.65 49.84 46.33 47.64 51.55 51.75 42.88 48.40 52.22 51.70 52.46 53.42 50.58 45.70 50.31 49.42 44.29 40.66 40.27 37.59 41.93 46.43 45.11 43.18 42.07 41.30 39.49 39.23 40.02 43.53 42.27 40.65 38.36 40.81 44.68 46.00 46.70 46.75 47.93 48.62 49.13
53.09 53.54 53.23 53.01 49.69 47.72 47.64 52.90 52.59 51.30 37.99 44.85 48.91 50.70 51.93 51.98 47.96 53.60 52.27 50.10 44.66 41.18 41.27 39.97 44.98 44.53 43.86 43.04 43.35 37.62 43.40 43.33 42.28 39.34 33.04 40.49 30.60 36.71 41.94 44.05 45.47 46.68 45.95 46.55 48.48
53.76 53.40 53.07 52.49 46.38 45.68 52.51 51.25 50.80 49.01 31.51 49.41 48.66 54.05 50.33 46.85 48.88 49.56 53.24 49.04 44.37 43.63 42.42 40.51 41.75 41.76 41.01 42.48 43.95 41.11 44.79 42.65 42.27 37.84 34.27 36.29 31.92 35.84 40.61 41.26 43.55 45.42 47.79 48.37 47.42
53.14 53.16 52.93 48.61 47.21 48.86 52.20 52.67 49.62 39.90 34.44 46.74 48.49 46.69 45.68 47.11 47.97 49.08 50.23 50.67 49.01 43.31 44.41 42.62 46.55 44.47 42.95 45.65 44.86 45.84 41.73 39.11 36.91 34.41 28.67 34.28 34.14 32.92 38.06 40.86 43.38 47.15 47.12 48.35 47.33
52.92 53.10 51.68 50.51 45.68 51.07 50.27 47.37 37.65 33.41 48.70 45.61 44.25 45.92 44.81 44.35 45.34 46.67 45.05 43.36 40.57 36.01 35.57 41.66 41.66 45.30 46.90 41.66 42.90 41.55 34.10 27.18 26.08 26.07 26.67 36.83 34.26 34.59 41.87 46.22 47.47 45.83 45.93 46.45 47.06
52.36 51.36 48.83 49.88 48.89 49.43 48.68 42.63 32.86 44.43 45.46 50.32 47.04 45.64 42.47 45.33 44.92 45.35 42.83 39.73 42.50 41.17 37.61 34.72 33.48 43.17 47.30 43.57 39.22 38.17 35.31 27.92 23.31 24.07 28.38 38.10 32.59 38.26 46.85 48.25 47.99 48.89 47.59 47.96 46.64
50.82 45.61 46.89 51.38 51.55 50.55 45.61 37.40 39.89 44.73 47.22 46.12 45.50 42.15 43.21 45.59 47.06 44.27 41.94 41.19 43.13 42.43 35.65 34.50 37.23 46.09 48.35 47.44 44.78 41.10 36.76 38.83 32.80 32.79 28.92 32.43 37.23 42.56 46.43 47.38 48.06 47.51 46.19 46.48 47.54
45.96 44.05 47.10 54.88 53.20 49.17 42.21 39.83 44.93 49.43 48.23 47.36 39.97 43.60 39.17 42.92 43.41 43.37 43.30 46.85 45.69 45.41 43.79 40.49 34.95 44.27 46.80 47.98 47.22 43.14 45.31 35.94 32.54 25.44 24.06 31.21 33.93 35.43 42.37 43.69 45.95 45.91 45.52 45.99 45.39
42.78 44.95 52.99 55.13 52.74 45.07 37.58 41.03 47.90 51.30 49.49 45.84 42.69 41.26 40.85 40.08 41.64 41.89 43.21 46.54 47.47 45.96 44.54 40.28 36.67 37.96 42.38 39.95 38.81 41.61 37.94 38.58 36.21 32.90 26.10 25.28 30.39 42.62 44.58 45.50 45.14 46.02 47.78 47.96 46.38
41.92 40.56 53.57 53.07 42.18 41.14 39.10 45.68 47.88 50.32 50.37 48.14 45.99 43.83 40.93 41.42 39.84 40.04 40.65 43.61 48.28 46.99 40.95 41.43 36.85 32.37 36.68 41.85 43.82 39.80 38.61 39.25 34.93 31.68 30.80 28.06 30.14 45.11 46.06 45.41 44.77 45.55 46.94 46.99 46.18
40.01 41.79 51.36 51.86 39.24 39.58 44.31 48.09 48.97 49.47 46.99 45.29 44.10 45.04 43.59 39.86 35.60 41.34 42.69 47.09 46.70 44.01 40.51 40.30 35.19 30.00 32.43 37.00 41.51 39.05 42.32 42.51 41.76 40.49 35.98 31.95 33.31 44.59 45.65 44.03 43.72 42.13 43.31 44.22 44.86
40.75 39.94 45.48 47.43 46.74 42.71 41.91 44.28 44.08 49.67 47.26 46.51 44.54 44.50 40.82 38.26 39.18 38.11 40.20 44.90 46.23 45.48 49.06 43.87 35.83 33.52 28.78 33.49 36.85 36.29 38.92 41.33 39.41 34.53 36.07 36.24 35.79 41.33 42.43 40.39 41.37 41.72 42.69 42.47 42.73
41.97 43.06 43.10 39.82 42.15 41.07 42.61 43.80 42.43 42.79 46.32 45.89 42.48 42.07 39.62 33.99 34.96 35.81 38.58 40.09 43.68 47.35 42.20 37.99 32.42 35.03 36.44 38.83 39.22 37.59 36.78 37.17 36.11 37.88 33.83 35.70 36.89 40.44 38.80 39.31 39.89 41.47 42.26 42.55 42.32
42.59 41.70 43.57 41.50 43.04 42.40 42.40 41.53 41.85 43.00 42.93 41.26 40.56 41.70 40.11 35.45 35.97 33.35 36.15 36.04 36.23 39.58 37.86 38.13 31.04 34.51 33.72 38.19 37.54 34.96 37.79 38.12 38.09 37.96 37.21 38.01 37.74 41.71 43.29 39.93 40.56 40.28 41.40 40.52 41.28
47.62 47.39 43.45 40.37 40.00 38.38 39.21 41.55 41.92 42.90 43.45 43.54 41.64 39.51 37.72 38.71 39.69 37.52 37.70 38.93 37.93 35.04 35.18 34.57 32.66 32.11 27.98 34.42 33.58 28.66 34.59 37.29 38.54 39.53 38.19 33.96 37.56 39.08 38.14 39.55 38.88 38.87 39.56 39.98 40.99
MSLP
1019.06 1018.77 1018.28 1017.80 1017.54 1017.32 1017.04 1016.73 1016.35 1016.04 1015.78 1015.50 1015.28 1015.18 1015.05 1014.99 1014.77 1014.44 1013.24 1011.00 1010.65 1009.85 1010.17 1010.18 1010.45 1010.34 1010.36 1010.39 1010.07 1009.99 1010.60 1009.91 1009.06 1008.43 1007.68 1006.43 1005.42 1004.54 1004.14 1003.77 1003.44 1003.59 1003.98 1004.20 1004.30
1018.70 1018.30 1018.08 1017.82 1017.39 1016.91 1016.63 1016.35 1016.09 1015.78 1015.53 1015.34 1014.98 1014.84 1014.77 1014.85 1014.39 1013.18 1008.92 1009.49 1009.42 1009.49 1010.18 1010.38 1010.07 1010.28 1010.58 1010.40 1010.06 1009.91 1009.93 1008.57 1008.35 1007.47 1007.58 1006.88 1006.11 1005.07 1004.40 1004.57 1004.38 1004.02 1003.83 1003.86 1003.95
1018.77 1018.23 1017.86 1017.50 1017.05 1016.78 1016.38 1016.01 1015.72 1015.47 1015.17 1014.99 1014.75 1014.65 1014.75 1014.64 1013.94 1009.40 1006.50 1008.02 1008.46 1009.18 1009.56 1009.71 1009.78 1010.15 1010.55 1010.24 1010.04 1009.62 1008.83 1008.57 1007.89 1007.47 1006.25 1006.61 1005.51 1005.58 1004.98 1004.76 1004.99 1004.63 1004.99 1004.54 1004.46
1018.67 1018.16 1017.56 1017.13 1016.84 1016.40 1016.10 1015.74 1015.33 1015.12 1014.85 1014.71 1014.56 1014.51 1014.65 1014.61 1011.53 1006.09 1005.72 1005.99 1007.80 1008.52 1009.35 1009.18 1009.83 1009.99 1010.20 1010.02 1009.59 1009.35 1008.43 1008.27 1007.85 1007.35 1006.92 1006.83 1006.06 1005.02 1005.33 1004.72 1004.70 1004.83 1004.41 1004.79 1004.79
1018.52 1018.08 1017.53 1016.97 1016.49 1016.07 1015.73 1015.40 1015.01 1014.61 1014.49 1014.37 1014.35 1014.34 1014.55 1013.74 1009.71 1005.98 1005.57 1006.06 1007.50 1008.52 1008.27 1008.94 1009.67 1009.54 1009.52 1009.41 1009.44 1009.01 1008.17 1007.67 1007.30 1007.02 1006.99 1006.91 1006.44 1006.10 1005.43 1004.60 1004.49 1004.58 1004.73 1004.54 1004.63
1018.39 1017.90 1017.40 1016.86 1016.28 1015.85 1015.41 1015.01 1014.64 1014.27 1013.97 1013.93 1014.00 1014.17 1014.13 1011.93 1006.30 1005.92 1006.19 1007.09 1007.41 1008.23 1007.98 1008.71 1008.62 1008.35 1008.60 1008.58 1008.77 1007.84 1007.57 1007.18 1006.77 1006.49 1006.39 1006.64 1006.26 1006.00 1005.09 1004.65 1004.47 1004.68 1004.92 1004.88 1004.64
1017.99 1017.58 1017.07 1016.49 1015.93 1015.35 1014.96 1014.66 1014.12 1013.77 1013.32 1013.41 1013.56 1013.79 1013.01 1009.03 1006.01 1005.93 1006.17 1006.49 1006.80 1007.26 1007.48 1007.61 1007.68 1008.20 1007.84 1007.84 1007.34 1007.39 1007.67 1007.15 1006.51 1005.96 1006.10 1005.94 1005.86 1005.30 1004.82 1004.62 1004.64 1004.67 1004.80 1004.62 1004.57
1017.61 1017.15 1016.63 1016.11 1015.51 1014.90 1014.35 1013.99 1013.68 1013.14 1012.90 1013.09 1013.26 1013.25 1010.98 1006.72 1006.38 1006.03 1006.19 1006.61 1006.66 1006.62 1006.58 1006.43 1007.17 1007.56 1007.53 1006.81 1006.82 1007.13 1007.34 1006.93 1005.74 1005.40 1005.39 1005.28 1004.83 1004.71 1004.60 1004.66 1004.80 1004.62 1004.56 1004.59 1004.55
1017.12 1016.55 1016.09 1015.47 1015.07 1014.45 1013.86 1013.21 1012.82 1012.53 1012.45 1012.79 1013.08 1012.57 1008.79 1005.70 1005.94 1004.98 1005.20 1005.46 1005.93 1006.31 1006.43 1006.17 1006.51 1006.69 1006.68 1007.10 1007.44 1007.09 1007.10 1006.37 1005.41 1004.72 1004.86 1004.87 1004.93 1004.27 1004.02 1004.51 1004.75 1004.80 1004.66 1004.71 1004.54
1016.78 1016.20 1015.54 1014.88 1014.46 1014.04 1013.49 1012.61 1012.00 1012.25 1012.34 1012.48 1012.10 1011.82 1007.74 1005.20 1004.16 1004.04 1004.34 1004.84 1005.33 1005.75 1006.44 1006.41 1006.32 1006.53 1007.03 1007.66 1007.72 1007.35 1006.79 1006.02 1005.44 1004.85 1004.93 1004.91 1004.87 1004.14 1003.88 1004.20 1004.43 1004.63 1004.52 1004.53 1004.59
1016.35 1015.72 1015.13 1014.48 1013.84 1013.53 1013.30 1012.60 1012.07 1011.98 1011.59 1009.75 1008.56 1007.60 1005.73 1004.31 1003.33 1003.86 1003.65 1004.19 1004.62 1005.19 1006.16 1006.27 1006.94 1007.21 1007.06 1007.10 1007.08 1006.95 1006.72 1006.48 1005.49 1004.94 1004.96 1004.67 1004.49 1003.54 1003.58 1004.04 1004.46 1004.51 1004.58 1004.44 1004.46
1015.93 1015.21 1014.49 1013.75 1013.07 1012.87 1013.40 1012.63 1009.40 1008.74 1008.91 1007.50 1006.97 1006.39 1005.12 1004.88 1004.28 1003.55 1003.64 1004.43 1004.80 1005.53 1005.98 1006.99 1007.08 1006.53 1006.50 1006.64 1006.68 1006.55 1006.59 1006.26 1005.37 1004.90 1004.83 1004.71 1004.42 1003.54 1003.71 1003.98 1004.10 1004.30 1004.62 1004.56 1004.58
1015.72 1015.00 1014.15 1013.21 1012.13 1012.01 1012.33 1010.79 1008.35 1008.07 1007.87 1005.95 1005.46 1004.89 1004.18 1004.06 1003.70 1003.33 1003.63 1004.13 1004.84 1005.66 1006.08 1006.56 1005.67 1005.70 1006.12 1006.19 1006.34 1006.04 1006.13 1005.98 1005.74 1004.81 1004.82 1004.97 1004.95 1004.49 1004.05 1003.91 1003.73 1003.91 1003.80 1003.90 1004.13
1015.10 1014.51 1013.87 1012.85 1011.86 1011.74 1010.63 1007.77 1007.89 1007.92 1007.54 1005.46 1004.31 1003.41 1003.28 1003.33 1003.26 1002.90 1003.28 1003.95 1004.76 1005.47 1006.01 1006.18 1005.16 1005.36 1005.41 1005.51 1005.29 1005.31 1005.01 1005.19 1005.44 1005.49 1005.90 1005.46 1005.93 1005.29 1004.48 1004.22 1004.10 1003.86 1004.07 1004.06 1003.75
1014.53 1013.95 1013.52 1013.52 1012.90 1011.37 1008.11 1007.66 1008.06 1007.65 1006.48 1004.20 1003.33 1002.51 1002.77 1003.26 1003.16 1002.83 1002.90 1003.70 1004.54 1005.12 1005.84 1005.71 1005.38 1005.25 1005.10 1004.92 1004.76 1004.26 1004.14 1004.81 1005.36 1006.01 1006.56 1006.69 1006.99 1005.67 1005.03 1004.68 1004.25 1003.94 1003.64 1003.13 1002.96
1013.74 1013.15 1012.95 1012.42 1012.53 1009.22 1008.04 1007.94 1007.46 1007.79 1005.18 1003.26 1002.80 1002.86 1003.22 1003.32 1003.17 1002.93 1003.18 1003.52 1004.37 1005.11 1005.44 1005.46 1005.13 1004.92 1004.61 1004.25 1004.24 1004.18 1004.69 1005.67 1006.35 1007.27 1007.83 1007.40 1007.17 1006.51 1005.38 1004.62 1004.32 1003.94 1003.64 1003.14 1003.10
1013.10 1012.11 1011.95 1012.08 1009.95 1008.34 1008.46 1007.95 1008.24 1006.80 1004.13 1003.28 1002.70 1002.92 1003.13 1003.38 1003.39 1003.40 1003.65 1004.04 1004.71 1005.49 1005.53 1005.39 1005.18 1004.64 1004.27 1004.26 1004.32 1004.80 1005.79 1007.67 1008.63 1009.03 1008.80 1007.86 1007.53 1006.24 1005.06 1004.83 1004.31 1004.05 1003.92 1003.95 1004.23
1012.16 1010.85 1009.85 1009.26 1008.37 1008.71 1008.49 1008.79 1007.58 1004.94 1003.42 1002.02 1002.27 1002.50 1003.12 1003.30 1003.63 1003.61 1004.14 1004.62 1004.88 1005.33 1005.84 1005.74 1005.53 1004.69 1004.62 1005.15 1005.58 1005.83 1006.67 1008.60 1009.42 1010.15 1009.79 1008.65 1007.70 1006.13 1005.50 1005.03 1004.27 1004.46 1004.24 1004.41 1005.10
1011.45 1009.97 1009.48 1007.15 1007.62 1008.56 1008.86 1008.19 1006.09 1004.02 1002.86 1002.36 1001.92 1002.74 1003.15 1003.47 1003.89 1003.95 1004.28 1004.55 1004.73 1005.24 1006.07 1006.08 1005.71 1004.97 1005.07 1005.57 1005.88 1006.25 1007.15 1007.87 1009.38 1010.56 1010.77 1009.68 1008.14 1006.69 1005.89 1005.68 1005.54 1005.08 1005.36 1005.40 1005.53
1012.14 1010.73 1007.95 1005.75 1006.73 1008.13 1008.46 1007.14 1005.00 1003.23 1002.49 1002.46 1002.75 1003.08 1003.53 1004.10 1004.31 1004.85 1004.75 1004.53 1004.93 1005.02 1005.38 1006.24 1006.52 1006.00 1005.57 1005.64 1006.04 1006.40 1007.31 1008.45 1010.09 1011.47 1011.63 1010.26 1008.80 1007.34 1006.71 1006.32 1005.80 1005.97 1006.14 1005.92 1005.88
1012.15 1010.78 1006.15 1005.24 1006.22 1007.83 1007.89 1006.24 1004.35 1003.33 1002.70 1002.69 1003.09 1003.49 1004.39 1004.61 1004.94 1005.49 1005.88 1005.32 1005.16 1005.66 1005.88 1006.69 1007.42 1007.74 1007.14 1007.13 1007.00 1007.43 1008.02 1009.39 1010.52 1011.30 1011.63 1011.02 1009.12 1007.31 1006.72 1006.38 1006.32 1006.01 1005.96 1006.16 1006.28
1012.94 1010.59 1006.24 1005.71 1007.11 1007.49 1007.05 1005.50 1004.35 1003.30 1002.91 1002.87 1003.34 1003.92 1004.73 1005.34 1005.82 1005.96 1006.19 1005.83 1005.68 1006.07 1007.17 1007.92 1008.44 1009.09 1008.72 1008.06 1008.00 1008.41 1009.07 1009.75 1011.41 1011.81 1011.60 1011.04 1008.94 1006.87 1006.64 1006.66 1006.67 1006.57 1006.46 1006.54 1007.03
1013.44 1011.04 1006.23 1006.01 1007.06 1007.24 1006.34 1005.32 1004.57 1003.67 1003.41 1003.43 1004.09 1004.51 1005.13 1006.24 1006.76 1006.93 1006.87 1006.85 1006.57 1007.18 1008.05 1008.60 1009.57 1010.28 1009.91 1009.60 1009.15 1009.29 1009.77 1010.52 1011.36 1011.85 1011.52 1011.50 1009.54 1007.68 1007.27 1007.63 1007.77 1007.81 1007.85 1007.80 1007.80
1013.81 1011.71 1008.14 1006.83 1007.08 1007.24 1006.81 1005.83 1005.02 1004.32 1003.81 1004.07 1004.89 1005.31 1006.23 1007.14 1007.54 1007.84 1008.03 1008.09 1007.90 1008.19 1008.67 1009.09 1010.33 1010.92 1011.06 1010.70 1010.56 1010.15 1009.95 1010.30 1011.13 1011.78 1011.43 1010.86 1010.11 1009.08 1008.72 1008.36 1008.73 1008.60 1008.42 1008.46 1008.62
1013.83 1011.74 1010.34 1009.18 1007.91 1007.83 1007.06 1006.14 1005.78 1005.06 1004.63 1005.05 1006.12 1006.57 1007.23 1008.18 1008.61 1008.95 1009.06 1009.41 1009.36 1009.52 1010.07 1010.53 1011.54 1011.75 1011.66 1011.32 1011.02 1010.65 1010.25 1010.11 1010.31 1010.53 1010.62 1010.19 1009.81 1009.20 1009.30 1009.30 1009.50 1009.29 1009.07 1009.13 1009.10
1013.53 1012.54 1011.53 1010.45 1009.20 1008.45 1007.34 1006.92 1006.37 1006.09 1006.06 1006.57 1007.04 1007.85 1008.07 1008.90 1009.37 1009.88 1010.09 1010.26 1010.66 1010.90 1011.29 1011.83 1012.52 1012.68 1012.63 1011.93 1011.36 1010.74 1009.86 1009.25 1009.20 1009.24 1009.13 1009.47 1009.37 1009.44 1009.86 1009.95 1009.86 1009.85 1009.72 1009.78 1009.74
1013.05 1012.54 1012.24 1010.99 1010.21 1009.17 1008.45 1007.15 1006.97 1006.90 1007.46 1007.46 1007.82 1008.47 1009.21 1009.68 1009.82 1010.18 1010.55 1010.78 1011.10 1011.77 1012.33 1012.75 1013.01 1013.51 1013.31 1012.66 1011.92 1010.61 1008.93 1008.44 1008.08 1008.33 1008.45 1009.22 1009.96 1010.05 1010.15 1010.24 1010.22 1010.18 1010.31 1010.27 1010.07
Wind_Speed
15 15 15 14 14 14 15 15 15 14 14 12 11 11 11 13 14 9 16 15 16 23 7 2 9 8 4 4 3 2 2 7 5 5 2 9 7 8 4 5 5 4 8 6 9
14 14 15 16 15 14 14 15 16 15 14 13 11 10 9 12 12 18 23 21 26 10 6 5 11 8 3 5 3 5 9 18 6 6 5 8 4 9 6 6 6 4 3 6 8
17 16 16 16 15 15 15 14 15 16 14 13 10 9 9 7 6 13 12 32 25 17 7 6 1 7 6 3 6 6 10 11 5 9 15 6 15 3 3 4 4 4 4 3 4
18 18 17 17 18 15 15 15 14 16 15 13 10 7 8 1 4 4 5 27 25 11 9 6 5 6 7 8 7 5 6 8 8 13 2 10 20 14 6 10 2 3 4 6 5
18 19 19 18 18 17 15 16 16 14 14 12 8 5 3 3 14 6 9 20 15 11 8 6 6 7 8 9 4 7 8 10 17 18 11 12 16 11 8 5 4 4 6 3 6
18 19 19 20 19 19 18 15 16 15 15 11 8 4 3 6 7 7 13 16 11 8 6 8 9 11 6 8 11 10 18 17 12 17 12 9 10 7 9 6 8 3 7 5 5
17 18 19 20 21 20 20 19 17 18 13 8 8 6 5 20 3 5 11 10 9 11 8 13 14 1 3 3 12 8 6 9 16 13 9 10 8 8 8 7 9 9 7 6 8
17 17 18 20 21 21 21 20 20 18 6 4 7 3 10 6 6 5 6 4 7 11 12 7 11 7 6 3 5 7 6 6 7 15 10 10 14 8 10 9 11 10 9 6 7
17 17 18 20 21 21 21 21 23 12 4 6 3 3 12 12 7 12 13 9 12 8 8 11 6 9 1 2 5 4 4 4 5 8 5 8 7 11 10 8 9 10 10 8 6
19 19 18 20 21 21 22 23 11 1 4 6 6 4 8 4 5 5 10 12 6 7 5 7 5 3 3 5 4 4 3 4 5 3 4 8 9 13 10 9 10 9 9 9 9
21 22 22 23 19 18 12 5 2 1 3 11 8 6 6 11 7 6 6 6 6 4 4 1 4 4 8 6 7 4 4 6 6 7 8 11 16 22 14 6 8 9 8 8 8
23 23 23 24 23 17 4 4 7 6 7 18 15 11 11 4 5 5 4 5 5 5 4 5 5 11 8 8 7 7 8 9 9 6 6 3 6 6 5 7 8 9 9 10 7
23 24 24 25 26 2 5 10 1 8 1 6 9 6 6 8 5 8 9 5 4 4 5 7 9 10 9 8 8 10 9 8 9 4 1 2 7 4 5 4 8 7 9 10 14
24 23 23 25 3 2 6 9 6 7 4 6 4 6 5 4 3 5 8 7 3 8 5 6 13 10 9 10 10 8 9 8 4 4 4 4 6 4 5 6 5 9 8 11 12
22 23 21 13 7 4 7 6 1 4 4 6 5 4 5 7 1 3 6 4 8 8 6 7 2 4 4 2 7 11 8 5 3 2 2 5 4 9 1 6 10 9 10 13 13
25 23 21 5 3 13 10 12 3 3 3 5 6 5 4 3 3 5 3 6 2 2 2 5 3 4 3 7 4 3 3 6 5 4 1 6 5 5 4 5 7 5 7 9 7
29 28 13 4 7 2 4 4 5 2 4 3 6 7 8 7 4 3 5 5 6 2 2 2 2 4 2 5 6 9 7 4 3 2 6 5 2 8 6 7 7 6 8 9 8
29 30 6 8 9 3 3 4 3 7 6 2 3 11 8 5 5 10 6 3 3 4 1 4 6 2 3 5 3 2 6 7 5 4 4 3 4 5 3 5 9 8 7 7 9
27 4 4 6 10 3 5 3 6 4 3 3 4 6 6 4 6 3 8 9 7 8 7 3 4 0 10 3 2 5 3 5 6 3 4 4 5 7 6 7 9 9 7 4 7
6 5 5 5 10 4 4 6 5 1 2 3 0 5 3 5 2 8 1 4 2 3 6 4 2 2 4 5 2 2 3 3 4 5 5 4 4 5 3 4 7 7 5 6 5
2 5 6 8 6 5 4 7 4 4 2 3 2 4 4 3 5 7 7 5 5 3 5 3 4 5 4 1 2 5 4 3 2 5 6 3 6 7 5 4 1 7 5 6 8
4 4 3 3 2 2 3 5 1 8 4 2 4 3 4 3 4 4 3 2 4 2 4 3 5 2 6 5 2 2 2 3 4 4 1 4 7 6 5 6 5 8 9 9 8
4 5 6 5 2 3 6 7 4 9 2 2 3 3 2 3 4 4 5 3 7 5 3 2 2 3 8 5 6 6 4 4 3 2 6 3 5 2 9 3 8 7 7 7 9
3 5 5 3 2 2 4 4 5 3 4 5 4 7 5 4 5 2 2 7 4 4 7 6 3 5 6 2 2 3 5 2 6 3 1 5 5 13 9 8 7 7 7 7 7
2 3 2 4 4 6 2 3 3 3 4 6 6 6 5 3 3 3 4 6 5 5 5 5 3 2 3 6 4 6 8 8 10 10 10 9 11 13 3 4 4 5 6 7 7
2 3 5 5 6 5 4 2 2 2 4 4 7 5 6 5 3 2 3 3 2 6 4 5 2 3 3 6 6 8 12 12 13 15 15 9 14 5 3 2 5 6 5 6 6
3 3 1 5 6 4 6 2 2 3 7 6 7 5 6 3 3 2 3 3 3 2 2 2 3 3 4 4 7 8 7 11 7 5 6 7 3 3 3 6 6 6 4 4 7
Wind_Direction
342 338 337 336 336 335 333 331 329 314 307 304 303 301 303 299 296 289 248 222 200 241 279 20 178 214 187 240 199 234 248 231 219 176 227 322 325 317 283 4 100 118 128 182 156
336 335 334 333 333 332 330 334 328 325 307 301 306 305 312 307 303 267 238 221 224 225 204 221 178 176 175 205 213 167 213 234 234 259 152 292 286 304 16 29 354 100 129 171 157
333 333 332 331 331 328 327 327 329 319 313 298 303 311 311 324 310 245 234 214 216 207 227 182 164 150 185 174 205 205 214 229 331 276 290 283 309 230 318 311 137 346 123 17 83
329 328 328 326 325 325 323 321 320 322 315 297 297 307 305 315 288 241 295 194 199 181 192 166 174 176 161 186 210 229 202 202 230 250 328 313 294 299 264 262 188 274 276 146 125
328 327 326 324 320 317 319 316 315 311 309 298 282 288 337 236 252 284 49 153 164 185 181 158 168 168 171 191 199 211 247 210 225 239 229 236 239 246 268 283 322 351 346 163 132
324 324 322 320 318 318 317 314 310 307 300 279 258 241 189 254 231 137 114 146 161 179 172 157 201 208 195 207 179 207 225 236 232 229 230 213 243 203 233 258 290 282 279 248 170
322 320 319 316 316 317 319 318 312 311 315 248 228 220 237 243 298 154 146 166 167 183 173 212 218 249 173 262 222 225 228 236 242 236 226 196 240 225 221 240 259 266 247 245 225
320 318 317 315 316 317 318 316 310 309 301 207 203 227 248 238 214 269 194 193 210 194 217 199 209 209 186 244 353 172 153 219 252 214 227 162 252 235 231 219 240 256 261 240 245
314 312 313 314 316 315 316 312 305 299 180 169 181 202 265 299 186 222 182 207 189 210 236 259 222 194 36 75 9 20 219 197 275 183 206 178 246 242 235 209 224 236 241 204 221
314 312 311 316 320 317 318 308 279 63 151 177 259 295 268 249 222 203 189 198 180 199 249 216 51 75 37 81 214 233 233 273 239 295 244 259 252 248 225 202 216 220 201 201 206
314 319 317 318 316 315 330 346 109 115 248 201 191 248 280 337 138 190 236 156 164 123 154 262 85 222 233 200 220 235 251 266 277 258 218 236 251 236 218 189 202 208 212 215 211
318 320 320 318 312 311 291 250 229 139 289 226 238 249 270 284 289 193 161 143 125 170 172 36 223 227 222 242 236 249 255 263 283 223 198 329 304 225 206 201 202 207 223 225 229
322 321 321 320 313 70 185 241 144 19 305 281 190 220 229 160 226 197 153 171 145 190 182 173 228 221 227 251 246 244 232 258 238 250 71 33 331 1 313 248 192 232 227 220 215
318 318 323 331 317 341 238 253 248 178 58 271 194 250 174 186 287 183 187 151 171 200 210 224 253 239 243 245 238 236 203 208 242 298 249 126 269 298 259 272 284 274 246 226 226
314 316 320 324 286 284 241 359 43 62 21 159 150 161 145 150 293 164 166 166 189 224 116 248 64 357 273 201 294 225 231 227 208 202 59 333 89 273 257 308 283 294 294 266 209
317 313 318 318 204 243 313 311 35 52 280 184 136 157 119 237 278 163 120 93 128 108 166 231 244 227 228 284 254 220 179 45 49 100 328 260 145 268 269 268 289 319 346 315 145
318 309 298 236 225 100 294 52 57 213 327 241 180 162 177 189 207 189 171 162 166 95 296 336 274 257 227 326 5 55 52 4 337 340 212 230 329 233 294 324 282 144 71 60 83
316 311 241 195 240 288 35 58 196 238 222 263 115 169 187 143 239 181 161 172 273 128 344 135 318 114 4 62 345 318 133 148 211 212 255 343 226 250 90 333 10 54 78 104 131
320 306 269 247 206 118 78 118 224 230 344 0 346 161 190 108 32 196 178 200 199 169 168 194 248 21 70 74 69 325 59 200 111 359 77 251 285 344 9 51 31 45 46 118 164
317 315 257 221 132 99 91 231 246 251 109 31 45 23 115 156 116 37 44 167 127 114 140 241 258 6 15 29 128 116 286 22 17 157 212 272 229 211 45 31 12 51 47 352 338
332 332 269 145 98 65 194 237 299 266 139 111 140 81 58 85 118 151 228 30 57 31 80 104 107 289 48 135 280 13 338 1 92 137 171 186 247 183 129 125 344 308 288 224 226
342 319 313 60 66 203 205 219 260 264 205 215 102 107 114 53 71 32 78 60 72 37 58 329 125 147 239 258 252 101 0 107 173 270 254 156 262 278 23 336 319 318 320 344 34
314 270 300 121 208 262 285 299 261 294 230 108 69 74 95 89 97 57 47 61 66 72 97 338 36 42 339 8 13 84 83 111 86 157 209 237 271 336 318 313 353 51 44 25 49
313 310 304 45 138 336 347 269 331 225 62 75 109 69 72 74 52 78 51 36 31 94 118 80 112 157 193 184 199 289 344 183 167 200 196 237 272 291 324 47 13 24 11 38 57
235 267 322 329 323 331 299 289 291 323 53 35 38 73 127 87 42 75 51 10 15 45 48 95 167 339 301 296 304 278 273 257 235 219 217 242 232 253 192 65 10 354 31 31 18
295 2 340 284 297 324 313 272 22 36 25 49 93 94 79 104 129 145 82 86 52 354 71 355 162 87 285 282 307 307 275 267 262 250 255 247 255 24 59 32 7 2 57 27 355
316 320 112 298 320 352 325 246 114 98 46 82 114 96 61 110 110 178 167 171 172 96 80 98 109 84 254 19 338 299 246 248 245 282 226 234 98 1 356 360 324 358 42 349 330